DW5164 Weather Reports


time (UTC)temp
F
wind
direction
speed
knots
gust
knots
rain 1hr
in
rain 24hr
in
rain mn
in
humidity
%
barometer
mb
20260510064552 62 73 7.8 11.3 0.03 0.03 0.03 92 1012.5
20260510064052 62 91 6.1 10.4 0.02 0.02 0.02 91 1012.5
20260510063552 62 77 8.7 11.3 0.02 0.02 0.02 90 1012.5
20260510063053 62 73 7.0 11.3 0.02 0.02 0.02 89 1012.5
20260510062552 63 80 6.1 12.2 0.01 0.01 0.01 87 1012.5
20260510062052 63 89 6.1 7.0 0.00 0.00 0.00 87 1012.5
20260510061552 63 83 5.2 11.3 0.00 0.00 0.00 87 1012.5
20260510061051 63 90 7.0 11.3 0.00 0.00 0.00 86 1012.7
20260510060052 62 91 5.2 7.8 0.00 0.00 0.00 85 1012.6
20260510055552 62 76 5.2 8.7 0.00 0.00 0.00 85 1012.6
20260510054552 62 85 2.6 5.2 0.00 0.00 0.00 88 1012.7
20260510054051 61 94 2.6 6.1 0.00 0.00 0.00 88 1012.7
20260510053553 61 122 2.6 4.3 0.00 0.00 0.00 88 1012.6
20260510053051 60 100 1.7 4.3 0.00 0.00 0.00 88 1012.6
20260510052551 60 108 1.7 4.3 0.00 0.00 0.00 88 1012.6
20260510052051 60 107 3.5 6.1 0.00 0.00 0.00 88 1012.6
20260510051552 60 111 2.6 6.1 0.00 0.00 0.00 88 1012.7
20260510051052 60 101 1.7 4.3 0.00 0.00 0.00 87 1012.7
20260510050553 61 104 2.6 4.3 0.00 0.00 0.00 86 1012.7
20260510050051 61 132 1.7 1.7 0.00 0.00 0.00 85 1012.7
20260510045551 61 177 1.7 2.6 0.00 0.00 0.00 85 1012.6
20260510044551 61 202 1.7 2.6 0.00 0.00 0.00 85 1012.6
20260510044051 60 56 0.9 1.7 0.00 0.00 0.00 85 1012.6
20260510043551 60 47 0.0 0.9 0.00 0.00 0.00 86 1012.6
20260510043051 60 47 0.0 0.0 0.00 0.00 0.00 86 1012.5
20260510042552 60 47 0.0 0.0 0.00 0.00 0.00 86 1012.5
20260510042051 60 47 0.0 0.0 0.00 0.00 0.00 86 1012.4
20260510041551 60 47 0.0 0.9 0.00 0.00 0.00 86 1012.4
20260510041051 60 50 0.9 1.7 0.00 0.00 0.00 86 1012.5
20260510040051 60 87 1.7 4.3 0.00 0.00 0.00 86 1012.4
20260510035552 60 101 2.6 4.3 0.00 0.00 0.00 86 1012.4
20260510035051 60 82 2.6 6.1 0.00 0.00 0.00 85 1012.2
20260510034551 60 63 2.6 4.3 0.00 0.00 0.00 85 1012.3
20260510034051 60 66 3.5 5.2 0.00 0.00 0.00 85 1012.3
20260510033051 60 58 2.6 4.3 0.00 0.00 0.00 85 1012.4
20260510032551 60 60 2.6 4.3 0.00 0.00 0.00 85 1012.4
20260510032051 60 75 2.6 6.1 0.00 0.00 0.00 85 1012.5
20260510031551 60 64 2.6 4.3 0.00 0.00 0.00 84 1012.5
20260510031051 60 69 2.6 5.2 0.00 0.00 0.00 84 1012.6
20260510030551 60 69 1.7 4.3 0.00 0.00 0.00 84 1012.6
20260510030051 60 57 2.6 2.6 0.00 0.00 0.00 84 1012.7
20260510025551 60 48 1.7 2.6 0.00 0.00 0.00 84 1012.8
20260510025051 60 54 1.7 2.6 0.00 0.00 0.00 84 1012.9
20260510024551 60 63 1.7 2.6 0.00 0.00 0.00 84 1012.9
20260510024051 60 47 1.7 2.6 0.00 0.00 0.00 83 1012.9
20260510023551 61 40 1.7 2.6 0.00 0.00 0.00 83 1013.0
20260510023052 61 43 2.6 2.6 0.00 0.00 0.00 83 1013.1
20260510022551 61 46 2.6 2.6 0.00 0.00 0.00 82 1013.1
20260510022051 61 47 1.7 2.6 0.00 0.00 0.00 82 1013.2
20260510021051 61 24 0.9 2.6 0.00 0.00 0.00 81 1013.2
20260510020551 61 52 1.7 2.6 0.00 0.00 0.00 81 1013.3
20260510015553 61 62 2.6 4.3 0.00 0.00 0.00 80 1013.5
20260510015051 61 60 2.6 2.6 0.00 0.00 0.00 80 1013.5
20260510014556 61 45 2.6 4.3 0.00 0.00 0.00 81 1013.6
20260510014051 61 47 1.7 4.3 0.00 0.00 0.00 80 1013.6
20260510013553 61 59 1.7 4.3 0.00 0.00 0.00 80 1013.7
20260510013052 61 70 1.7 2.6 0.00 0.00 0.00 80 1013.7
20260510012551 61 73 1.7 4.3 0.00 0.00 0.00 79 1013.8
20260510012051 62 65 2.6 4.3 0.00 0.00 0.00 78 1013.8
20260510011551 62 70 2.6 5.2 0.00 0.00 0.00 78 1013.8
20260510011051 62 66 1.7 4.3 0.00 0.00 0.00 77 1013.9
20260510010553 62 72 1.7 2.6 0.00 0.00 0.00 77 1013.9
20260510010051 62 80 2.6 5.2 0.00 0.00 0.00 76 1013.8
20260510005550 62 72 2.6 6.1 0.00 0.00 0.00 76 1013.8
20260510004551 62 68 4.3 7.0 0.00 0.00 0.00 75 1013.8
20260510004051 62 65 3.5 7.0 0.00 0.00 0.00 74 1013.8
20260510003554 62 68 3.5 6.1 0.00 0.00 0.00 74 1013.8
20260510003051 62 69 2.6 6.1 0.00 0.00 0.00 75 1013.8
20260510002552 62 65 2.6 4.3 0.00 0.00 0.00 75 1013.8
20260510002051 62 59 2.6 4.3 0.00 0.00 0.00 76 1013.8
20260510001051 62 69 2.6 4.3 0.00 0.00 0.00 77 1014.0
20260510000551 62 62 2.6 4.3 0.00 0.00 0.00 77 1014.0
20260509235551 62 67 2.6 4.3 0.00 0.00 0.00 78 1014.1
20260509235051 62 53 3.5 4.3 0.00 0.00 0.00 78 1014.1
20260509234050 62 53 2.6 5.2 0.00 0.00 0.00 78 1014.2
20260509233051 62 70 4.3 4.3 0.00 0.00 0.00 78 1014.3
20260509232558 62 58 2.6 4.3 0.00 0.00 0.00 79 1014.3
20260509232050 62 54 3.5 5.2 0.00 0.00 0.00 79 1014.3
20260509231550 62 47 4.3 6.1 0.00 0.00 0.00 79 1014.4
20260509230550 62 49 3.5 4.3 0.00 0.00 0.00 79 1014.4
20260509230105 62 52 1.7 2.6 0.00 0.00 0.00 79 1014.4
20260509225551 62 64 2.6 6.1 0.00 0.00 0.00 78 1014.3
20260509225051 63 48 4.3 6.1 0.00 0.00 0.00 78 1014.3
20260509224551 63 71 1.7 4.3 0.00 0.00 0.00 78 1014.3
20260509224050 63 51 5.2 7.0 0.00 0.00 0.00 78 1014.3
20260509223550 63 43 3.5 5.2 0.00 0.00 0.00 78 1014.3
20260509223050 63 79 1.7 2.6 0.00 0.00 0.00 77 1014.1
20260509222552 63 106 0.9 2.6 0.00 0.00 0.00 78 1014.1
20260509222050 63 85 0.9 1.7 0.00 0.00 0.00 77 1014.1
20260509221551 64 85 0.9 1.7 0.00 0.00 0.00 77 1014.1
20260509221050 64 85 0.9 1.7 0.00 0.00 0.00 77 1014.0
20260509220551 64 100 1.7 1.7 0.00 0.00 0.00 77 1014.0
20260509220050 64 105 0.9 1.7 0.00 0.00 0.00 77 1014.0
20260509215550 64 105 1.7 2.6 0.00 0.00 0.00 76 1014.0
20260509215050 65 105 1.7 2.6 0.00 0.00 0.00 75 1014.0
20260509214550 65 105 0.9 1.7 0.00 0.00 0.00 73 1014.0
20260509214050 65 106 1.7 2.6 0.00 0.00 0.00 72 1014.0
20260509213051 66 122 1.7 5.2 0.00 0.00 0.00 71 1014.0
20260509212550 66 134 1.7 4.3 0.00 0.00 0.00 71 1014.0
20260509212051 66 165 2.6 2.6 0.00 0.00 0.00 72 1014.0
20260509211550 66 148 2.6 6.1 0.00 0.00 0.00 73 1014.0
20260509210550 65 117 1.7 2.6 0.00 0.00 0.00 74 1014.0
20260509205550 66 127 1.7 2.6 0.00 0.00 0.00 72 1013.9
20260509205050 66 92 1.7 2.6 0.00 0.00 0.00 72 1013.9
20260509204552 67 104 1.7 2.6 0.00 0.00 0.00 72 1013.9
20260509204051 67 106 1.7 2.6 0.00 0.00 0.00 70 1013.9
20260509203550 67 106 0.9 2.6 0.00 0.00 0.00 69 1013.9
20260509203052 67 106 1.7 2.6 0.00 0.00 0.00 70 1013.9
20260509202550 67 82 1.7 2.6 0.00 0.00 0.00 71 1013.8
20260509202050 67 101 0.9 1.7 0.00 0.00 0.00 71 1013.8
20260509201550 67 78 1.7 2.6 0.00 0.00 0.00 71 1013.8
20260509201051 67 44 1.7 1.7 0.00 0.00 0.00 72 1013.8
20260509200550 67 44 0.9 2.6 0.00 0.00 0.00 73 1013.8
20260509200051 68 44 0.0 0.9 0.00 0.00 0.00 72 1013.8
20260509195049 67 38 1.7 2.6 0.00 0.00 0.00 73 1013.7
20260509194550 67 55 0.9 1.7 0.00 0.00 0.00 72 1013.6
20260509194049 67 55 0.9 0.9 0.00 0.00 0.00 72 1013.5
20260509193605 67 55 1.7 1.7 0.00 0.00 0.00 71 1013.5
20260509193050 68 55 1.7 1.7 0.00 0.00 0.00 71 1013.4
20260509192550 68 55 1.7 1.7 0.00 0.00 0.00 70 1013.3
20260509192049 68 55 0.0 0.0 0.00 0.00 0.00 69 1013.3
20260509191551 68 55 0.0 0.0 0.00 0.00 0.00 68 1013.1
20260509191050 68 55 0.0 0.0 0.00 0.00 0.00 67 1013.1
20260509190049 69 54 0.9 1.7 0.00 0.00 0.00 67 1013.1
20260509185552 69 54 0.0 0.0 0.00 0.00 0.00 67 1013.1
20260509185050 70 54 0.0 0.0 0.00 0.00 0.00 66 1013.0
20260509184550 70 54 0.0 0.0 0.00 0.00 0.00 64 1013.0
20260509184050 70 54 0.9 1.7 0.00 0.00 0.00 64 1013.0
20260509183049 71 54 0.9 1.7 0.00 0.00 0.00 63 1012.9
20260509182550 71 54 0.9 1.7 0.00 0.00 0.00 63 1012.9
20260509182050 72 54 0.9 0.9 0.00 0.00 0.00 62 1012.9
20260509181549 72 43 0.9 0.9 0.00 0.00 0.00 61 1012.9
20260509180550 73 43 0.9 2.6 0.00 0.00 0.00 63 1012.8
20260509180050 73 102 1.7 2.6 0.00 0.00 0.00 62 1012.9
20260509175550 73 102 0.9 1.7 0.00 0.00 0.00 59 1012.9
20260509174550 74 103 0.9 1.7 0.00 0.00 0.00 57 1012.9
20260509174052 74 133 0.9 1.7 0.00 0.00 0.00 56 1012.9
20260509173549 75 133 0.9 1.7 0.00 0.00 0.00 55 1012.9
20260509173050 75 133 0.9 1.7 0.00 0.00 0.00 56 1013.0
20260509172550 75 133 0.0 0.9 0.00 0.00 0.00 57 1013.0
20260509172052 76 133 0.9 1.7 0.00 0.00 0.00 54 1013.0
20260509171549 76 139 1.7 2.6 0.00 0.00 0.00 53 1013.0
20260509171050 76 105 0.9 2.6 0.00 0.00 0.00 51 1013.1
20260509170549 76 116 2.6 4.3 0.00 0.00 0.00 52 1013.1
20260509170052 77 127 0.9 2.6 0.00 0.00 0.00 51 1013.2
20260509165549 77 179 0.9 2.6 0.00 0.00 0.00 50 1013.2
20260509165050 77 199 2.6 7.0 0.00 0.00 0.00 51 1013.2
20260509164549 77 78 0.9 1.7 0.00 0.00 0.00 51 1013.3
20260509163049 78 97 1.7 4.3 0.00 0.00 0.00 50 1013.4
20260509162549 78 215 3.5 4.3 0.00 0.00 0.00 49 1013.4
20260509162050 78 183 1.7 5.2 0.00 0.00 0.00 49 1013.4
20260509161549 78 171 1.7 5.2 0.00 0.00 0.00 51 1013.4
20260509161049 78 118 1.7 4.3 0.00 0.00 0.00 50 1013.4
20260509160549 78 159 1.7 6.1 0.00 0.00 0.00 51 1013.5
20260509155549 78 138 3.5 4.3 0.00 0.00 0.00 50 1013.5
20260509155049 78 173 1.7 5.2 0.00 0.00 0.00 50 1013.4
20260509153549 78 152 0.9 4.3 0.00 0.00 0.00 49 1013.4
20260509153049 78 115 1.7 4.3 0.00 0.00 0.00 50 1013.4
20260509152549 79 122 4.3 4.3 0.00 0.00 0.00 50 1013.4
20260509152049 79 122 1.7 4.3 0.00 0.00 0.00 50 1013.5
20260509151549 78 261 4.3 7.0 0.00 0.00 0.00 49 1013.5
20260509151049 79 214 1.7 6.1 0.00 0.00 0.00 50 1013.4
20260509145049 79 206 1.7 2.6 0.00 0.00 0.00 45 1013.4
20260509144551 78 175 0.9 4.3 0.00 0.00 0.00 45 1013.5
20260509144049 79 216 2.6 2.6 0.00 0.00 0.00 47 1013.5
20260509143551 79 220 4.3 6.1 0.00 0.00 0.00 47 1013.5
20260509143049 79 233 3.5 6.1 0.00 0.00 0.00 47 1013.6
20260509142551 78 112 2.6 4.3 0.00 0.00 0.00 48 1013.7
20260509142049 79 119 1.7 5.2 0.00 0.00 0.00 50 1013.7
20260509141548 79 185 0.9 2.6 0.00 0.00 0.00 50 1013.7
20260509135050 78 155 0.9 4.3 0.00 0.00 0.00 50 1014.1
20260509134550 79 117 0.9 4.3 0.00 0.00 0.00 51 1014.3
20260509134049 78 196 1.7 2.6 0.00 0.00 0.00 49 1014.3
20260509133549 78 281 4.3 6.1 0.00 0.00 0.00 52 1014.4
20260509133048 78 205 5.2 8.7 0.00 0.00 0.00 51 1014.5
20260509131549 79 228 2.6 6.1 0.00 0.00 0.00 48 1014.5
20260509131049 78 242 4.3 5.2 0.00 0.00 0.00 51 1014.6
20260509130550 77 225 0.9 6.1 0.00 0.00 0.00 52 1014.6
20260509130049 78 212 2.6 5.2 0.00 0.00 0.00 51 1014.7
20260509125049 77 124 2.6 8.7 0.00 0.00 0.00 53 1014.8
20260509124549 77 229 1.7 6.1 0.00 0.00 0.00 55 1014.9
20260509124049 77 268 2.6 4.3 0.00 0.00 0.00 55 1014.9
20260509123052 76 197 1.7 4.3 0.00 0.00 0.00 57 1015.0
20260509122549 77 217 1.7 4.3 0.00 0.00 0.00 54 1015.0
20260509122049 77 194 2.6 4.3 0.00 0.00 0.00 54 1015.0
20260509121548 77 192 4.3 6.1 0.00 0.00 0.00 56 1014.9
20260509121049 77 211 2.6 6.1 0.00 0.00 0.00 56 1015.0
20260509120549 77 207 1.7 5.2 0.00 0.00 0.00 55 1015.0
20260509120048 77 205 2.6 7.0 0.00 0.00 0.00 56 1014.9
20260509115049 77 192 2.6 4.3 0.00 0.00 0.00 56 1015.0
20260509114549 77 153 4.3 7.8 0.00 0.00 0.00 55 1015.0
20260509114049 77 200 3.5 5.2 0.00 0.00 0.00 56 1015.1
20260509113050 76 191 2.6 4.3 0.00 0.00 0.00 58 1015.2
20260509112100 76 250 2.6 4.3 0.00 0.00 0.00 56 1015.4
20260509111548 77 287 1.7 2.6 0.00 0.00 0.00 55 1015.5
20260509111048 76 0 2.6 5.2 0.00 0.00 0.00 58 1015.5
20260509110604 75 257 3.5 5.2 0.00 0.00 0.00 57 1015.5
20260509110048 76 239 2.6 5.2 0.00 0.00 0.00 58 1015.5
20260509105549 75 195 2.6 4.3 0.00 0.00 0.00 58 1015.6
20260509105048 75 330 3.5 5.2 0.00 0.00 0.00 59 1015.7
20260509104548 74 299 2.6 4.3 0.00 0.00 0.00 60 1015.8
20260509104055 74 308 1.7 5.2 0.00 0.00 0.00 58 1015.8
20260509103548 75 300 4.3 6.1 0.00 0.00 0.00 59 1015.9
20260509103048 74 239 1.7 6.1 0.00 0.00 0.00 63 1016.0
20260509102549 75 265 3.5 7.0 0.00 0.00 0.00 60 1016.1
20260509102049 74 146 3.5 6.1 0.00 0.00 0.00 61 1016.2
20260509101049 75 232 6.1 6.1 0.00 0.00 0.00 61 1016.2
20260509100548 74 258 3.5 4.3 0.00 0.00 0.00 62 1016.3
20260509095548 73 225 1.7 2.6 0.00 0.00 0.00 63 1016.3
20260509095048 74 258 1.7 4.3 0.00 0.00 0.00 63 1016.3
20260509094548 73 253 0.9 2.6 0.00 0.00 0.00 66 1016.3
20260509094048 73 232 1.7 2.6 0.00 0.00 0.00 67 1016.4
20260509093549 74 259 1.7 4.3 0.00 0.00 0.00 65 1016.4
20260509092548 72 67 2.6 4.3 0.00 0.00 0.00 67 1016.4
20260509092048 72 331 0.9 1.7 0.00 0.00 0.00 66 1016.5
20260509090548 71 321 0.9 2.6 0.00 0.00 0.00 70 1016.5
20260509090048 71 101 0.9 2.6 0.00 0.00 0.00 69 1016.5
20260509085047 70 220 1.7 2.6 0.00 0.00 0.00 70 1016.6
20260509084548 70 220 1.7 4.3 0.00 0.00 0.00 69 1016.6
20260509084048 71 246 0.9 2.6 0.00 0.00 0.00 68 1016.7
20260509083548 70 73 0.9 2.6 0.00 0.00 0.00 73 1016.6
20260509083048 70 62 0.9 2.6 0.00 0.00 0.00 73 1016.7
20260509082547 69 330 0.9 2.6 0.00 0.00 0.00 72 1016.7
20260509080547 68 264 0.9 4.3 0.00 0.00 0.00 75 1016.8
20260509074548 67 77 0.0 2.6 0.00 0.00 0.00 76 1016.8
20260509074047 66 63 0.9 2.6 0.00 0.00 0.00 77 1016.8
20260509073047 66 328 0.9 1.7 0.00 0.00 0.00 82 1016.9
20260509072548 65 198 0.9 1.7 0.00 0.00 0.00 81 1016.8
20260509072047 65 14 0.9 1.7 0.00 0.00 0.00 82 1016.9
20260509071548 65 332 1.7 1.7 0.00 0.00 0.00 83 1016.9
20260509071049 65 355 0.0 1.7 0.00 0.00 0.00 83 1016.9
20260509070548 64 355 0.9 1.7 0.00 0.00 0.00 84 1016.9
20260509065547 63 76 1.7 2.6 0.00 0.00 0.00 84 1016.8